World > North America > United States > Florida > Daytona Beach   City of Daytona Beach, FL

Daytona Beach, FL Hourly Weather Updates

Feedback E-mail the Weather

Quick Clicks

Daytona Beach, FL Weather Maps

°F °C°F °C
Daytona Beach Weather Map
UTC Time: 6/25/2024, 17:24
Your Time:

Daytona Beach, FL Regional Weather

Expires:202406251800;;913046
ASUS42 KTBW 251711
RWRFL 
FLORIDA REGIONAL WEATHER ROUNDUP
NATIONAL WEATHER SERVICE TAMPA BAY RUSKIN FL
100 PM EDT TUE JUN 25 2024

NOTE: "FAIR" INDICATES FEW OR NO CLOUDS BELOW 12,000 FEET WITH NO
SIGNIFICANT WEATHER AND/OR OBSTRUCTIONS TO VISIBILITY.


FLZ041-047-054-059-064-141-147-251800-
EAST CENTRAL FLORIDA
  
CITY           SKY/WX    TMP DP  RH WIND       PRES   REMARKS
ORMOND BEACH   PTSUNNY   90  77  66 E7        29.97S HX 102           
DAYTONA BEACH  MOSUNNY   92  77  61 NE9       29.98S HX 105           
DELAND         CLOUDY    90  72  56 W5        29.98F HX  97           
NEW SMYRNA BEA MOSUNNY   88  79  74 NE10      29.98S HX 102           
JFK SPACE CTR  CLOUDY    88  75  65 N7        29.95F HX  97           
TITUSVILLE     MOSUNNY   93  72  49 E7        29.98F HX 100           
CAPE CANAVERAL MOSUNNY   90  73  57 SE5       29.94F HX  97           
PATRICK AFB    MOSUNNY   86  75  68 E8        29.95S HX  95           
MELBOURNE      MOSUNNY   89  74  60 NE9       29.96F HX  98           
VERO BEACH     MOSUNNY   89  75  63 S6        29.97F HX  99           
FT PIERCE      MOSUNNY   88  74  63 E5        29.97F HX  96           
STUART         PTSUNNY   88  77  70 E10       29.97F HX 100           

STATION/POSITION SKY/WX   TEMP    WIND        PRES    WAVE   SWELL
                          AIR SEA DIR/SP/G            HT/PER HT/PER
                          (F)     (DEG/KT/KT) (MB)    (FT/S) (FT/S)
28.5N   80.2W              82 83  160/  6/  6 1015.6
28.9N   78.5W              81 81  180/  6/  6 1015.7
TRIDENT PIER               84 89  180/  7/  9 1015.1
28.4N   80.5W                 85                N/A     2/ 8
27.6N   80.2W                 83                N/A     1/ 7

$$

SKY/WX - Weather  TMP - Temperature  DP - Dew Point  RH - Humidity
WIND - Wind Direction/Speed PRES - Barometric Pressure VSB - Visibility
WCI - Wind Chill Index E13G22 Wind - East Wind 13 mph/Gusts of 22 mph

Trending Headlines

Trending Entertainment Headlines

Daytona Beach Radar Loop

Use the map search tool if you want to place a location marker on the radar map...

Daytona Beach Quick Facts

National Two Day Weather Forecast


E-mail the Daytona Beach Weather Forecast

Voice your opinion or tell us about page issues...